Time,TemperatureF,DewpointF,PressureIn,WindDirection,WindDirectionDegrees,WindSpeedMPH,WindSpeedGustMPH,Humidity,HourlyPrecipIn,Conditions,Clouds,dailyrainin,SoftwareType,DateUTC
2013-05-21 00:00:00,56.1,44.9,29.86,SW,225,0.0,0.0,66,0.00,CLR,FEW,0.00,WeatherDisplay:10.37,2013-05-21 07:00:00,
2013-05-21 00:05:00,55.8,45.0,29.87,SW,225,0.0,0.0,67,0.00,CLR,FEW,0.00,WeatherDisplay:10.37,2013-05-21 07:05:00,
2013-05-21 00:10:00,55.8,45.0,29.87,SW,225,0.0,0.0,67,0.00,CLR,FEW,0.00,WeatherDisplay:10.37,2013-05-21 07:10:00,
2013-05-21 00:15:00,55.2,44.4,29.86,West,270,0.0,0.0,67,0.00,CLR,FEW,0.00,WeatherDisplay:10.37,2013-05-21 07:15:00,
2013-05-21 00:20:00,55.2,44.4,29.86,WSW,248,0.0,0.0,67,0.00,CLR,FEW,0.00,WeatherDisplay:10.37,2013-05-21 07:20:00,
2013-05-21 00:25:00,55.0,44.7,29.86,WSW,248,0.0,0.0,68,0.00,CLR,FEW,0.00,WeatherDisplay:10.37,2013-05-21 07:25:00,
2013-05-21 00:30:00,54.9,44.5,29.86,WSW,248,0.0,0.0,68,0.00,CLR,FEW,0.00,WeatherDisplay:10.37,2013-05-21 07:30:00,
2013-05-21 00:35:00,54.5,44.5,29.86,WSW,248,0.0,0.0,69,0.00,CLR,FEW,0.00,WeatherDisplay:10.37,2013-05-21 07:35:00,
2013-05-21 00:40:00,54.3,44.4,29.86,WSW,248,0.0,0.0,69,0.00,CLR,FEW,0.00,WeatherDisplay:10.37,2013-05-21 07:40:00,
2013-05-21 00:45:00,54.1,44.2,29.85,WSW,248,0.0,0.0,69,0.00,CLR,FEW,0.00,WeatherDisplay:10.37,2013-05-21 07:45:00,
2013-05-21 00:50:00,54.0,44.0,29.86,WSW,248,0.0,0.0,69,0.00,CLR,FEW,0.00,WeatherDisplay:10.37,2013-05-21 07:50:00,
2013-05-21 00:55:00,53.8,44.2,29.85,WSW,248,0.0,0.0,70,0.00,CLR,FEW,0.00,WeatherDisplay:10.37,2013-05-21 07:55:00,
2013-05-21 01:00:00,53.8,44.2,29.85,WSW,248,0.0,0.0,70,0.00,CLR,FEW,0.00,WeatherDisplay:10.37,2013-05-21 08:00:00,
2013-05-21 01:05:00,53.4,43.5,29.85,WSW,248,0.0,0.0,69,0.00,CLR,FEW,0.00,WeatherDisplay:10.37,2013-05-21 08:05:00,
2013-05-21 01:10:00,53.4,43.9,29.85,WSW,248,0.0,0.0,70,0.00,CLR,FEW,0.00,WeatherDisplay:10.37,2013-05-21 08:10:00,
2013-05-21 01:15:00,53.2,43.7,29.85,WSW,248,0.0,0.0,70,0.00,CLR,FEW,0.00,WeatherDisplay:10.37,2013-05-21 08:15:00,
2013-05-21 01:20:00,53.2,44.1,29.85,WSW,248,0.0,0.0,71,0.00,CLR,FEW,0.00,WeatherDisplay:10.37,2013-05-21 08:20:00,
2013-05-21 01:25:00,52.9,43.7,29.85,WSW,248,0.0,0.0,71,0.00,CLR,FEW,0.00,WeatherDisplay:10.37,2013-05-21 08:25:00,
2013-05-21 01:30:00,52.7,43.6,29.84,WSW,248,0.0,0.0,71,0.00,CLR,FEW,0.00,WeatherDisplay:10.37,2013-05-21 08:30:00,
2013-05-21 01:35:00,52.5,43.8,29.84,WSW,248,0.0,0.0,72,0.00,CLR,FEW,0.00,WeatherDisplay:10.37,2013-05-21 08:35:00,
2013-05-21 01:40:00,52.3,43.2,29.84,WSW,248,0.0,0.0,71,0.00,CLR,FEW,0.00,WeatherDisplay:10.37,2013-05-21 08:40:00,
2013-05-21 01:45:00,52.2,43.4,29.84,WSW,248,0.0,0.0,72,0.00,CLR,FEW,0.00,WeatherDisplay:10.37,2013-05-21 08:45:00,
2013-05-21 01:50:00,52.2,43.4,29.84,WSW,248,0.0,0.0,72,0.00,CLR,FEW,0.00,WeatherDisplay:10.37,2013-05-21 08:50:00,
2013-05-21 01:55:00,51.8,43.1,29.84,WSW,248,0.0,0.0,72,0.00,CLR,FEW,0.00,WeatherDisplay:10.37,2013-05-21 08:55:00,
2013-05-21 02:00:00,51.6,42.9,29.84,WSW,248,0.0,0.0,72,0.00,CLR,FEW,0.00,WeatherDisplay:10.37,2013-05-21 09:00:00,
2013-05-21 02:05:00,51.6,42.9,29.84,WSW,248,0.0,0.0,72,0.00,CLR,FEW,0.00,WeatherDisplay:10.37,2013-05-21 09:05:00,
2013-05-21 02:10:00,51.4,43.1,29.84,WSW,248,0.0,0.0,73,0.00,CLR,FEW,0.00,WeatherDisplay:10.37,2013-05-21 09:10:00,
2013-05-21 02:15:00,51.1,42.4,29.83,WSW,248,0.0,0.0,72,0.00,CLR,FEW,0.00,WeatherDisplay:10.37,2013-05-21 09:15:00,
2013-05-21 02:20:00,50.9,42.6,29.83,WSW,248,0.0,0.0,73,0.00,CLR,FEW,0.00,WeatherDisplay:10.37,2013-05-21 09:20:00,
2013-05-21 02:25:00,50.7,42.4,29.84,WSW,248,0.0,0.0,73,0.00,CLR,FEW,0.00,WeatherDisplay:10.37,2013-05-21 09:25:00,
2013-05-21 02:30:00,50.7,42.7,29.83,WSW,248,0.0,0.0,74,0.00,CLR,FEW,0.00,WeatherDisplay:10.37,2013-05-21 09:30:00,
2013-05-21 02:35:00,50.5,42.6,29.83,WSW,248,0.0,0.0,74,0.00,CLR,FEW,0.00,WeatherDisplay:10.37,2013-05-21 09:35:00,
2013-05-21 02:40:00,50.4,42.4,29.83,WSW,248,0.0,0.0,74,0.00,CLR,FEW,0.00,WeatherDisplay:10.37,2013-05-21 09:40:00,
2013-05-21 02:45:00,50.2,42.2,29.83,WSW,248,0.0,0.0,74,0.00,CLR,FEW,0.00,WeatherDisplay:10.37,2013-05-21 09:45:00,
2013-05-21 02:50:00,50.2,42.2,29.83,WSW,248,0.0,0.0,74,0.00,CLR,FEW,0.00,WeatherDisplay:10.37,2013-05-21 09:50:00,
2013-05-21 02:55:00,49.8,41.9,29.83,WSW,248,0.0,0.0,74,0.00,CLR,FEW,0.00,WeatherDisplay:10.37,2013-05-21 09:55:00,
2013-05-21 03:00:00,49.6,41.7,29.83,WSW,248,0.0,0.0,74,0.00,CLR,FEW,0.00,WeatherDisplay:10.37,2013-05-21 10:00:00,
2013-05-21 03:05:00,49.6,41.7,29.83,WSW,248,0.0,0.0,74,0.00,CLR,FEW,0.00,WeatherDisplay:10.37,2013-05-21 10:05:00,
2013-05-21 03:10:00,49.5,41.5,29.83,WSW,248,0.0,0.0,74,0.00,CLR,FEW,0.00,WeatherDisplay:10.37,2013-05-21 10:10:00,
2013-05-21 03:15:00,49.3,41.7,29.82,WSW,248,0.0,0.0,75,0.00,CLR,FEW,0.00,WeatherDisplay:10.37,2013-05-21 10:15:00,
2013-05-21 03:20:00,49.1,41.5,29.82,WSW,248,0.0,0.0,75,0.00,CLR,FEW,0.00,WeatherDisplay:10.37,2013-05-21 10:20:00,
2013-05-21 03:25:00,48.9,41.0,29.82,WSW,248,0.0,0.0,74,0.00,CLR,FEW,0.00,WeatherDisplay:10.37,2013-05-21 10:25:00,
2013-05-21 03:30:00,48.9,41.3,29.82,WSW,248,0.0,0.0,75,0.00,CLR,FEW,0.00,WeatherDisplay:10.37,2013-05-21 10:30:00,
2013-05-21 03:35:00,48.7,41.2,29.82,WSW,248,0.0,0.0,75,0.00,CLR,FEW,0.00,WeatherDisplay:10.37,2013-05-21 10:35:00,
2013-05-21 03:40:00,48.6,41.0,29.82,WSW,248,0.0,0.0,75,0.00,CLR,FEW,0.00,WeatherDisplay:10.37,2013-05-21 10:40:00,
2013-05-21 03:45:00,48.4,41.2,29.81,WSW,248,0.0,0.0,76,0.00,CLR,FEW,0.00,WeatherDisplay:10.37,2013-05-21 10:45:00,
2013-05-21 03:50:00,48.4,41.2,29.81,WSW,248,0.0,0.0,76,0.00,CLR,FEW,0.00,WeatherDisplay:10.37,2013-05-21 10:50:00,
2013-05-21 03:55:00,48.0,40.8,29.82,WSW,248,0.0,0.0,76,0.00,CLR,FEW,0.00,WeatherDisplay:10.37,2013-05-21 10:55:00,
2013-05-21 04:00:00,48.0,41.2,29.82,WSW,248,0.0,0.0,77,0.00,CLR,FEW,0.00,WeatherDisplay:10.37,2013-05-21 11:00:00,
2013-05-21 04:05:00,47.8,40.6,29.81,WSW,248,0.0,0.0,76,0.00,CLR,FEW,0.00,WeatherDisplay:10.37,2013-05-21 11:05:00,
2013-05-21 04:10:00,47.8,41.0,29.81,WSW,248,0.0,0.0,77,0.00,CLR,FEW,0.00,WeatherDisplay:10.37,2013-05-21 11:10:00,
2013-05-21 04:15:00,47.7,40.5,29.81,WSW,248,0.0,0.0,76,0.00,CLR,FEW,0.00,WeatherDisplay:10.37,2013-05-21 11:15:00,
2013-05-21 04:20:00,47.5,40.6,29.81,WSW,248,0.0,0.0,77,0.00,CLR,FEW,0.00,WeatherDisplay:10.37,2013-05-21 11:20:00,
2013-05-21 04:25:00,47.3,40.5,29.81,WSW,248,0.0,0.0,77,0.00,CLR,FEW,0.00,WeatherDisplay:10.37,2013-05-21 11:25:00,
2013-05-21 04:30:00,47.1,40.3,29.80,WSW,248,0.0,0.0,77,0.00,CLR,FEW,0.00,WeatherDisplay:10.37,2013-05-21 11:30:00,
2013-05-21 04:35:00,47.1,40.3,29.81,WSW,248,0.0,0.0,77,0.00,CLR,FEW,0.00,WeatherDisplay:10.37,2013-05-21 11:35:00,
2013-05-21 04:40:00,46.9,40.1,29.80,WSW,248,0.0,0.0,77,0.00,CLR,FEW,0.00,WeatherDisplay:10.37,2013-05-21 11:40:00,
2013-05-21 04:45:00,46.8,39.9,29.80,WSW,248,0.0,0.0,77,0.00,CLR,FEW,0.00,WeatherDisplay:10.37,2013-05-21 11:45:00,
2013-05-21 04:50:00,46.6,40.1,29.81,WSW,248,0.0,0.0,78,0.00,CLR,FEW,0.00,WeatherDisplay:10.37,2013-05-21 11:50:00,
2013-05-21 04:55:00,46.2,39.7,29.81,WSW,248,0.0,0.0,78,0.00,CLR,FEW,0.00,WeatherDisplay:10.37,2013-05-21 11:55:00,
2013-05-21 05:00:00,46.2,39.7,29.80,WSW,248,0.0,0.0,78,0.00,CLR,FEW,0.00,WeatherDisplay:10.37,2013-05-21 12:00:00,
2013-05-21 05:05:00,46.2,40.1,29.80,WSW,248,0.0,0.0,79,0.00,CLR,FEW,0.00,WeatherDisplay:10.37,2013-05-21 12:05:00,
2013-05-21 05:10:00,46.0,39.9,29.80,WSW,248,0.0,0.0,79,0.00,CLR,FEW,0.00,WeatherDisplay:10.37,2013-05-21 12:10:00,
2013-05-21 05:15:00,46.0,39.6,29.80,WSW,248,0.0,0.0,78,0.00,CLR,FEW,0.00,WeatherDisplay:10.37,2013-05-21 12:15:00,
2013-05-21 05:20:00,46.0,39.9,29.79,WSW,248,0.0,0.0,79,0.00,CLR,FEW,0.00,WeatherDisplay:10.37,2013-05-21 12:20:00,
2013-05-21 05:25:00,45.9,39.7,29.80,WSW,248,0.0,0.0,79,0.00,CLR,FEW,0.00,WeatherDisplay:10.37,2013-05-21 12:25:00,
2013-05-21 05:30:00,45.7,39.5,29.80,WSW,248,0.0,0.0,79,0.00,CLR,FEW,0.00,WeatherDisplay:10.37,2013-05-21 12:30:00,
2013-05-21 05:35:00,45.7,39.5,29.79,WSW,248,0.0,0.0,79,0.00,CLR,FEW,0.00,WeatherDisplay:10.37,2013-05-21 12:35:00,
2013-05-21 05:40:00,45.7,39.5,29.79,WSW,248,0.0,0.0,79,0.00,CLR,FEW,0.00,WeatherDisplay:10.37,2013-05-21 12:40:00,
2013-05-21 05:45:00,45.7,39.5,29.79,WSW,248,0.0,0.0,79,0.00,CLR,FEW,0.00,WeatherDisplay:10.37,2013-05-21 12:45:00,
2013-05-21 05:50:00,45.7,39.5,29.79,WSW,248,0.0,0.0,79,0.00,CLR,FEW,0.00,WeatherDisplay:10.37,2013-05-21 12:50:00,
2013-05-21 05:55:00,45.9,39.7,29.79,WSW,248,0.0,0.0,79,0.00,CLR,FEW,0.00,WeatherDisplay:10.37,2013-05-21 12:55:00,
2013-05-21 06:00:00,46.0,40.2,29.79,NE,45,0.0,0.0,80,0.00,CLR,FEW,0.00,WeatherDisplay:10.37,2013-05-21 13:00:00,
2013-05-21 06:05:00,46.0,40.9,29.79,NE,45,0.0,0.0,82,0.00,CLR,FEW,0.00,WeatherDisplay:10.37,2013-05-21 13:05:00,
2013-05-21 06:10:00,48.0,42.8,29.79,NE,45,0.0,0.0,82,0.00,CLR,FEW,0.00,WeatherDisplay:10.37,2013-05-21 13:10:00,
2013-05-21 06:15:00,49.1,43.5,29.79,NE,45,0.0,0.0,81,0.00,CLR,FEW,0.00,WeatherDisplay:10.37,2013-05-21 13:15:00,
2013-05-21 06:20:00,50.9,45.3,29.79,NE,45,0.0,0.0,81,0.00,CLR,FEW,0.00,WeatherDisplay:10.37,2013-05-21 13:20:00,
2013-05-21 06:25:00,52.3,46.0,29.78,NE,45,0.0,0.0,79,0.00,CLR,FEW,0.00,WeatherDisplay:10.37,2013-05-21 13:25:00,
2013-05-21 06:30:00,53.8,46.4,29.78,NE,45,0.0,0.0,76,0.00,CLR,FEW,0.00,WeatherDisplay:10.37,2013-05-21 13:30:00,
2013-05-21 06:35:00,55.4,47.2,29.78,NE,45,0.0,0.0,74,0.00,CLR,FEW,0.00,WeatherDisplay:10.37,2013-05-21 13:35:00,
2013-05-21 06:40:00,55.8,46.9,29.77,NE,45,0.0,0.0,72,0.00,CLR,FEW,0.00,WeatherDisplay:10.37,2013-05-21 13:40:00,
2013-05-21 06:45:00,57.9,48.2,29.77,NE,45,0.0,0.0,70,0.00,CLR,FEW,0.00,WeatherDisplay:10.37,2013-05-21 13:45:00,
2013-05-21 06:50:00,58.8,48.7,29.77,NE,45,0.0,0.0,69,0.00,CLR,FEW,0.00,WeatherDisplay:10.37,2013-05-21 13:50:00,
2013-05-21 06:55:00,60.4,49.4,29.78,NE,45,0.0,0.0,67,0.00,CLR,FEW,0.00,WeatherDisplay:10.37,2013-05-21 13:55:00,
2013-05-21 07:00:00,61.9,49.6,29.77,NE,45,0.0,0.0,64,0.00,CLR,FEW,0.00,WeatherDisplay:10.37,2013-05-21 14:00:00,
2013-05-21 07:05:00,63.0,50.6,29.77,NE,45,0.0,0.0,64,0.00,CLR,FEW,0.00,WeatherDisplay:10.37,2013-05-21 14:05:00,
2013-05-21 07:10:00,63.7,50.4,29.77,NE,45,0.0,0.0,62,0.00,CLR,FEW,0.00,WeatherDisplay:10.37,2013-05-21 14:10:00,
2013-05-21 07:15:00,65.5,50.8,29.77,NE,45,0.0,0.0,59,0.00,CLR,FEW,0.00,WeatherDisplay:10.37,2013-05-21 14:15:00,
2013-05-21 07:20:00,65.8,50.6,29.77,NE,45,0.0,0.0,58,0.00,CLR,FEW,0.00,WeatherDisplay:10.37,2013-05-21 14:20:00,
2013-05-21 07:25:00,66.6,50.8,29.76,NE,45,0.0,0.0,57,0.00,CLR,FEW,0.00,WeatherDisplay:10.37,2013-05-21 14:25:00,
2013-05-21 07:30:00,66.7,50.5,29.76,NE,45,0.0,0.0,56,0.00,CLR,FEW,0.00,WeatherDisplay:10.37,2013-05-21 14:30:00,
2013-05-21 07:35:00,66.9,50.7,29.75,ENE,68,0.0,0.0,56,0.00,CLR,FEW,0.00,WeatherDisplay:10.37,2013-05-21 14:35:00,
2013-05-21 07:40:00,67.1,50.4,29.75,NE,45,0.0,0.0,55,0.00,CLR,FEW,0.00,WeatherDisplay:10.37,2013-05-21 14:40:00,
2013-05-21 07:45:00,67.6,50.9,29.75,NE,45,1.2,1.2,55,0.00,CLR,FEW,0.00,WeatherDisplay:10.37,2013-05-21 14:45:00,
2013-05-21 07:50:00,68.5,50.7,29.74,ENE,68,1.2,1.3,53,0.00,CLR,FEW,0.00,WeatherDisplay:10.37,2013-05-21 14:50:00,
2013-05-21 07:55:00,68.7,50.4,29.74,NE,45,0.0,0.0,52,0.00,CLR,FEW,0.00,WeatherDisplay:10.37,2013-05-21 14:55:00,
2013-05-21 08:00:00,68.9,50.5,29.74,NE,45,0.0,0.0,52,0.00,CLR,FEW,0.00,WeatherDisplay:10.37,2013-05-21 15:00:00,
2013-05-21 08:06:00,69.4,51.0,29.74,NE,45,0.0,0.0,52,0.00,CLR,FEW,0.00,WeatherDisplay:10.37,2013-05-21 15:06:00,
2013-05-21 08:11:00,70.3,51.3,29.73,NE,45,0.0,0.0,51,0.00,CLR,FEW,0.00,WeatherDisplay:10.37,2013-05-21 15:11:00,
2013-05-21 08:16:00,71.4,51.3,29.72,NE,45,0.0,0.0,49,0.00,CLR,FEW,0.00,WeatherDisplay:10.37,2013-05-21 15:16:00,
2013-05-21 08:21:00,71.8,51.6,29.73,NE,45,0.0,0.0,49,0.00,CLR,FEW,0.00,WeatherDisplay:10.37,2013-05-21 15:21:00,
2013-05-21 08:26:00,72.5,51.1,29.72,NE,45,0.0,0.0,47,0.00,CLR,FEW,0.00,WeatherDisplay:10.37,2013-05-21 15:26:00,
2013-05-21 08:31:00,72.7,51.9,29.72,ENE,68,0.0,0.0,48,0.00,CLR,FEW,0.00,WeatherDisplay:10.37,2013-05-21 15:31:00,
2013-05-21 08:36:00,73.8,52.3,29.71,NE,45,0.0,0.0,47,0.00,CLR,FEW,0.00,WeatherDisplay:10.37,2013-05-21 15:36:00,
2013-05-21 08:41:00,74.3,52.8,29.71,NNE,22,0.0,0.0,47,0.00,CLR,FEW,0.00,WeatherDisplay:10.37,2013-05-21 15:41:00,
2013-05-21 08:46:00,75.6,51.5,29.70,ENE,68,0.0,0.0,43,0.00,CLR,FEW,0.00,WeatherDisplay:10.37,2013-05-21 15:46:00,
2013-05-21 08:51:00,75.0,51.6,29.70,ENE,68,0.0,0.0,44,0.00,CLR,FEW,0.00,WeatherDisplay:10.37,2013-05-21 15:51:00,
2013-05-21 08:56:00,75.0,51.6,29.69,ENE,68,0.0,0.0,44,0.00,CLR,FEW,0.00,WeatherDisplay:10.37,2013-05-21 15:56:00,
2013-05-21 09:01:00,75.9,52.4,29.69,ENE,68,0.0,0.0,44,0.00,CLR,FEW,0.00,WeatherDisplay:10.37,2013-05-21 16:01:00,
2013-05-21 09:06:00,76.6,52.5,29.69,ENE,68,0.0,0.0,43,0.00,CLR,FEW,0.00,WeatherDisplay:10.37,2013-05-21 16:06:00,
2013-05-21 09:11:00,76.3,50.8,29.68,NE,45,0.0,0.0,41,0.00,CLR,FEW,0.00,WeatherDisplay:10.37,2013-05-21 16:11:00,
2013-05-21 09:16:00,76.1,50.7,29.68,NE,45,0.0,0.0,41,0.00,CLR,FEW,0.00,WeatherDisplay:10.37,2013-05-21 16:16:00,
2013-05-21 09:21:00,75.9,50.5,29.67,ENE,68,2.3,2.3,41,0.00,CLR,FEW,0.00,WeatherDisplay:10.37,2013-05-21 16:21:00,
2013-05-21 09:26:00,75.6,49.5,29.67,ENE,68,0.0,0.0,40,0.00,CLR,FEW,0.00,WeatherDisplay:10.37,2013-05-21 16:26:00,
2013-05-21 09:31:00,75.4,49.4,29.67,ENE,68,1.2,1.2,40,0.00,CLR,FEW,0.00,WeatherDisplay:10.37,2013-05-21 16:31:00,
2013-05-21 09:36:00,74.1,48.9,29.66,NE,45,1.2,1.2,41,0.00,CLR,FEW,0.00,WeatherDisplay:10.37,2013-05-21 16:36:00,
2013-05-21 09:41:00,73.6,48.4,29.66,ENE,68,0.0,0.0,41,0.00,CLR,FEW,0.00,WeatherDisplay:10.37,2013-05-21 16:41:00,
2013-05-21 09:46:00,73.0,50.4,29.66,East,90,0.0,0.0,45,0.00,CLR,FEW,0.00,WeatherDisplay:10.37,2013-05-21 16:46:00,
2013-05-21 09:51:00,73.0,49.8,29.65,East,90,0.0,0.0,44,0.00,CLR,FEW,0.00,WeatherDisplay:10.37,2013-05-21 16:51:00,
2013-05-21 09:56:00,73.2,50.0,29.65,ENE,68,2.3,2.3,44,0.00,CLR,FEW,0.00,WeatherDisplay:10.37,2013-05-21 16:56:00,
2013-05-21 10:01:00,72.7,49.5,29.65,ENE,68,0.0,0.0,44,0.00,CLR,FEW,0.00,WeatherDisplay:10.37,2013-05-21 17:01:00,
2013-05-21 10:06:00,72.5,49.9,29.64,East,90,0.0,0.0,45,0.00,CLR,FEW,0.00,WeatherDisplay:10.37,2013-05-21 17:06:00,
2013-05-21 10:11:00,72.5,50.5,29.64,East,90,0.0,0.0,46,0.00,CLR,FEW,0.00,WeatherDisplay:10.37,2013-05-21 17:11:00,
2013-05-21 10:16:00,72.3,49.8,29.63,North,0,0.0,0.0,45,0.00,CLR,FEW,0.00,WeatherDisplay:10.37,2013-05-21 17:16:00,
2013-05-21 10:21:00,72.1,49.6,29.63,ENE,68,0.0,0.0,45,0.00,CLR,FEW,0.00,WeatherDisplay:10.37,2013-05-21 17:21:00,
2013-05-21 10:26:00,72.1,50.8,29.62,ENE,68,0.0,0.0,47,0.00,CLR,FEW,0.00,WeatherDisplay:10.37,2013-05-21 17:26:00,
2013-05-21 10:31:00,72.1,50.2,29.62,East,90,0.0,0.0,46,0.00,CLR,FEW,0.00,WeatherDisplay:10.37,2013-05-21 17:31:00,
2013-05-21 10:36:00,72.3,51.0,29.62,ESE,112,0.0,0.0,47,0.00,CLR,FEW,0.00,WeatherDisplay:10.37,2013-05-21 17:36:00,
2013-05-21 10:41:00,72.3,49.8,29.62,East,90,0.0,0.0,45,0.00,CLR,FEW,0.00,WeatherDisplay:10.37,2013-05-21 17:41:00,
2013-05-21 10:46:00,72.3,50.4,29.62,East,90,1.2,1.2,46,0.00,CLR,FEW,0.00,WeatherDisplay:10.37,2013-05-21 17:46:00,
2013-05-21 10:51:00,72.3,49.8,29.61,East,90,0.0,0.0,45,0.00,CLR,FEW,0.00,WeatherDisplay:10.37,2013-05-21 17:51:00,
2013-05-21 10:56:00,72.1,50.2,29.61,East,90,0.0,0.0,46,0.00,CLR,FEW,0.00,WeatherDisplay:10.37,2013-05-21 17:56:00,
2013-05-21 11:01:00,72.0,50.0,29.61,East,90,0.0,0.0,46,0.00,CLR,FEW,0.00,WeatherDisplay:10.37,2013-05-21 18:01:00,
2013-05-21 11:06:00,71.8,50.5,29.60,East,90,0.0,0.0,47,0.00,CLR,FEW,0.00,WeatherDisplay:10.37,2013-05-21 18:06:00,
2013-05-21 11:11:00,72.0,51.2,29.60,East,90,0.0,0.0,48,0.00,CLR,FEW,0.00,WeatherDisplay:10.37,2013-05-21 18:11:00,
2013-05-21 11:16:00,72.1,50.8,29.60,East,90,0.0,0.0,47,0.00,CLR,FEW,0.00,WeatherDisplay:10.37,2013-05-21 18:16:00,
2013-05-21 11:21:00,72.1,50.8,29.59,East,90,0.0,0.0,47,0.00,CLR,FEW,0.00,WeatherDisplay:10.37,2013-05-21 18:21:00,
2013-05-21 11:26:00,72.0,51.2,29.59,East,90,0.0,0.0,48,0.00,CLR,FEW,0.00,WeatherDisplay:10.37,2013-05-21 18:26:00,
2013-05-21 11:31:00,72.0,51.2,29.58,East,90,0.0,0.0,48,0.00,CLR,FEW,0.00,WeatherDisplay:10.37,2013-05-21 18:31:00,
2013-05-21 11:36:00,72.1,51.4,29.58,East,90,0.0,0.0,48,0.00,CLR,FEW,0.00,WeatherDisplay:10.37,2013-05-21 18:36:00,
2013-05-21 11:41:00,72.1,51.4,29.58,East,90,0.0,0.0,48,0.00,CLR,FEW,0.00,WeatherDisplay:10.37,2013-05-21 18:41:00,
2013-05-21 11:46:00,72.1,51.4,29.58,East,90,0.0,0.0,48,0.00,CLR,FEW,0.00,WeatherDisplay:10.37,2013-05-21 18:46:00,
2013-05-21 11:51:00,72.3,52.1,29.57,East,90,0.0,0.0,49,0.00,CLR,FEW,0.00,WeatherDisplay:10.37,2013-05-21 18:51:00,
2013-05-21 11:56:00,72.3,52.1,29.58,East,90,0.0,0.0,49,0.00,CLR,FEW,0.00,WeatherDisplay:10.37,2013-05-21 18:56:00,
2013-05-21 12:01:00,72.3,52.1,29.57,East,90,0.0,0.0,49,0.00,CLR,FEW,0.00,WeatherDisplay:10.37,2013-05-21 19:01:00,
2013-05-21 12:06:00,72.1,52.5,29.57,East,90,0.0,0.0,50,0.00,CLR,FEW,0.00,WeatherDisplay:10.37,2013-05-21 19:06:00,
2013-05-21 12:11:00,72.1,51.9,29.57,East,90,0.0,0.0,49,0.00,CLR,FEW,0.00,WeatherDisplay:10.37,2013-05-21 19:11:00,
2013-05-21 12:16:00,72.0,52.3,29.57,East,90,0.0,0.0,50,0.00,CLR,FEW,0.00,WeatherDisplay:10.37,2013-05-21 19:16:00,
2013-05-21 12:21:00,72.0,52.3,29.56,East,90,0.0,0.0,50,0.00,CLR,FEW,0.00,WeatherDisplay:10.37,2013-05-21 19:21:00,
2013-05-21 12:26:00,71.8,52.1,29.56,East,90,0.0,0.0,50,0.00,CLR,FEW,0.00,WeatherDisplay:10.37,2013-05-21 19:26:00,
2013-05-21 12:31:00,71.8,52.1,29.56,East,90,0.0,0.0,50,0.00,CLR,FEW,0.00,WeatherDisplay:10.37,2013-05-21 19:31:00,
2013-05-21 12:36:00,71.4,51.8,29.56,East,90,0.0,0.0,50,0.00,CLR,FEW,0.00,WeatherDisplay:10.37,2013-05-21 19:36:00,
2013-05-21 12:41:00,71.4,52.3,29.56,East,90,0.0,0.0,51,0.00,CLR,FEW,0.00,WeatherDisplay:10.37,2013-05-21 19:41:00,
2013-05-21 12:46:00,71.2,52.7,29.55,East,90,0.0,0.0,52,0.00,CLR,FEW,0.00,WeatherDisplay:10.37,2013-05-21 19:46:00,
2013-05-21 12:51:00,71.2,53.2,29.54,East,90,0.0,0.0,53,0.00,CLR,FEW,0.00,WeatherDisplay:10.37,2013-05-21 19:51:00,
2013-05-21 12:57:00,70.9,53.4,29.54,East,90,0.0,0.0,54,0.00,CLR,FEW,0.00,WeatherDisplay:10.37,2013-05-21 19:57:00,
2013-05-21 13:02:00,70.9,53.9,29.54,East,90,0.0,0.0,55,0.00,CLR,FEW,0.00,WeatherDisplay:10.37,2013-05-21 20:02:00,
2013-05-21 13:07:00,70.7,53.7,29.54,East,90,0.0,0.0,55,0.00,CLR,FEW,0.00,WeatherDisplay:10.37,2013-05-21 20:07:00,
2013-05-21 13:12:00,70.7,53.7,29.54,East,90,0.0,0.0,55,0.00,CLR,FEW,0.00,WeatherDisplay:10.37,2013-05-21 20:12:00,
2013-05-21 13:17:00,70.7,53.7,29.54,East,90,0.0,0.0,55,0.00,CLR,FEW,0.00,WeatherDisplay:10.37,2013-05-21 20:17:00,
2013-05-21 13:22:00,70.9,54.4,29.53,East,90,0.0,0.0,56,0.00,CLR,FEW,0.00,WeatherDisplay:10.37,2013-05-21 20:22:00,
2013-05-21 13:27:00,71.1,54.1,29.53,East,90,0.0,0.0,55,0.00,CLR,FEW,0.00,WeatherDisplay:10.37,2013-05-21 20:27:00,
2013-05-21 13:32:00,71.2,53.7,29.53,East,90,0.0,0.0,54,0.00,CLR,FEW,0.00,WeatherDisplay:10.37,2013-05-21 20:32:00,
2013-05-21 13:37:00,71.2,53.2,29.53,NE,45,0.0,0.0,53,0.00,CLR,FEW,0.00,WeatherDisplay:10.37,2013-05-21 20:37:00,
2013-05-21 13:42:00,71.2,53.2,29.53,NNE,22,0.0,0.0,53,0.00,CLR,FEW,0.00,WeatherDisplay:10.37,2013-05-21 20:42:00,
2013-05-21 13:47:00,71.2,53.2,29.53,North,0,0.0,0.0,53,0.00,CLR,FEW,0.00,WeatherDisplay:10.37,2013-05-21 20:47:00,
2013-05-21 13:52:00,71.2,53.2,29.53,North,0,0.0,0.0,53,0.00,CLR,FEW,0.00,WeatherDisplay:10.37,2013-05-21 20:52:00,
2013-05-21 13:57:00,71.4,52.9,29.52,ENE,68,2.3,2.3,52,0.00,CLR,FEW,0.00,WeatherDisplay:10.37,2013-05-21 20:57:00,
2013-05-21 14:02:00,71.4,52.3,29.52,NE,45,0.0,0.0,51,0.00,CLR,FEW,0.00,WeatherDisplay:10.37,2013-05-21 21:02:00,
2013-05-21 14:07:00,72.1,54.1,29.51,NE,45,0.0,0.0,53,0.00,CLR,FEW,0.00,WeatherDisplay:10.37,2013-05-21 21:07:00,
2013-05-21 14:12:00,72.3,53.7,29.51,NE,45,0.0,0.0,52,0.00,CLR,FEW,0.00,WeatherDisplay:10.37,2013-05-21 21:12:00,
2013-05-21 14:17:00,72.7,53.0,29.51,NW,315,0.0,0.0,50,0.00,CLR,FEW,0.00,WeatherDisplay:10.37,2013-05-21 21:17:00,
2013-05-21 14:22:00,73.0,52.7,29.51,NW,315,0.0,0.0,49,0.00,CLR,FEW,0.00,WeatherDisplay:10.37,2013-05-21 21:22:00,
2013-05-21 14:27:00,73.0,53.3,29.51,ENE,68,0.0,0.0,50,0.00,CLR,FEW,0.00,WeatherDisplay:10.37,2013-05-21 21:27:00,
2013-05-21 14:32:00,73.0,53.8,29.52,SE,135,0.0,0.0,51,0.00,CLR,FEW,0.00,WeatherDisplay:10.37,2013-05-21 21:32:00,
2013-05-21 14:37:00,72.9,53.1,29.52,ENE,68,1.2,1.2,50,0.00,CLR,FEW,0.00,WeatherDisplay:10.37,2013-05-21 21:37:00,
2013-05-21 14:42:00,72.7,54.0,29.50,SW,225,8.1,8.1,52,0.00,CLR,FEW,0.00,WeatherDisplay:10.37,2013-05-21 21:42:00,
2013-05-21 14:47:00,72.5,50.5,29.50,ENE,68,8.1,8.1,46,0.00,CLR,FEW,0.00,WeatherDisplay:10.37,2013-05-21 21:47:00,
2013-05-21 14:52:00,72.3,52.1,29.50,SSE,158,0.0,0.0,49,0.00,CLR,FEW,0.00,WeatherDisplay:10.37,2013-05-21 21:52:00,
2013-05-21 14:57:00,72.3,52.6,29.50,East,90,0.0,0.0,50,0.00,CLR,FEW,0.00,WeatherDisplay:10.37,2013-05-21 21:57:00,
2013-05-21 15:02:00,72.5,53.9,29.50,ESE,112,6.9,6.9,52,0.00,CLR,FEW,0.00,WeatherDisplay:10.37,2013-05-21 22:02:00,
2013-05-21 15:07:00,72.5,53.9,29.51,SE,135,0.0,0.0,52,0.00,CLR,FEW,0.00,WeatherDisplay:10.37,2013-05-21 22:07:00,
2013-05-21 15:12:00,72.3,53.7,29.52,SW,225,9.2,9.2,52,0.00,CLR,FEW,0.00,WeatherDisplay:10.37,2013-05-21 22:12:00,
2013-05-21 15:17:00,72.3,50.4,29.52,West,270,10.4,10.4,46,0.00,CLR,FEW,0.00,WeatherDisplay:10.37,2013-05-21 22:17:00,
2013-05-21 15:22:00,72.3,51.0,29.52,SW,225,7.2,7.2,47,0.00,CLR,FEW,0.00,WeatherDisplay:10.37,2013-05-21 22:22:00,
2013-05-21 15:27:00,72.7,50.1,29.52,West,270,6.9,7.3,45,0.00,CLR,FEW,0.00,WeatherDisplay:10.37,2013-05-21 22:27:00,
2013-05-21 15:32:00,72.7,49.5,29.52,North,0,9.2,9.2,44,0.00,CLR,FEW,0.00,WeatherDisplay:10.37,2013-05-21 22:32:00,
2013-05-21 15:37:00,72.7,48.9,29.52,NNW,338,8.1,8.1,43,0.00,CLR,FEW,0.00,WeatherDisplay:10.37,2013-05-21 22:37:00,
2013-05-21 15:42:00,72.7,48.9,29.54,NNE,22,9.2,9.2,43,0.00,CLR,FEW,0.00,WeatherDisplay:10.37,2013-05-21 22:42:00,
2013-05-21 15:47:00,72.1,48.4,29.55,SSW,202,4.6,4.6,43,0.00,CLR,FEW,0.00,WeatherDisplay:10.37,2013-05-21 22:47:00,
2013-05-21 15:52:00,71.8,47.4,29.56,SW,225,6.3,6.3,42,0.00,CLR,FEW,0.00,WeatherDisplay:10.37,2013-05-21 22:52:00,
2013-05-21 15:57:00,71.4,47.7,29.57,SSW,202,12.5,12.5,43,0.00,CLR,FEW,0.00,WeatherDisplay:10.37,2013-05-21 22:57:00,
2013-05-21 16:02:00,70.5,47.5,29.58,SW,225,12.7,12.7,44,0.00,CLR,FEW,0.00,WeatherDisplay:10.37,2013-05-21 23:02:00,
2013-05-21 16:07:00,69.8,46.9,29.58,NNE,22,3.5,3.5,44,0.00,CLR,FEW,0.00,WeatherDisplay:10.37,2013-05-21 23:07:00,
2013-05-21 16:12:00,68.7,45.9,29.60,North,0,4.6,4.6,44,0.00,CLR,FEW,0.00,WeatherDisplay:10.37,2013-05-21 23:12:00,
2013-05-21 16:17:00,67.6,46.1,29.61,West,270,5.8,5.8,46,0.00,CLR,FEW,0.00,WeatherDisplay:10.37,2013-05-21 23:17:00,
2013-05-21 16:22:00,66.0,45.2,29.62,SE,135,11.5,11.5,47,0.00,CLR,FEW,0.00,WeatherDisplay:10.37,2013-05-21 23:22:00,
2013-05-21 16:27:00,65.5,45.3,29.62,North,0,3.5,3.5,48,0.00,CLR,FEW,0.00,WeatherDisplay:10.37,2013-05-21 23:27:00,
2013-05-21 16:32:00,64.2,44.6,29.60,NNE,22,4.6,4.8,49,0.00,CLR,FEW,0.00,WeatherDisplay:10.37,2013-05-21 23:32:00,
2013-05-21 16:37:00,63.7,44.2,29.61,SSW,202,3.5,3.5,49,0.00,CLR,FEW,0.00,WeatherDisplay:10.37,2013-05-21 23:37:00,
2013-05-21 16:42:00,63.5,44.5,29.63,WSW,248,9.2,9.2,50,0.00,CLR,FEW,0.00,WeatherDisplay:10.37,2013-05-21 23:42:00,
2013-05-21 16:47:00,63.5,44.5,29.65,WNW,292,0.0,0.0,50,0.00,CLR,FEW,0.00,WeatherDisplay:10.37,2013-05-21 23:47:00,
2013-05-21 16:52:00,63.5,44.5,29.69,SSW,202,13.0,13.0,50,0.00,CLR,FEW,0.00,WeatherDisplay:10.37,2013-05-21 23:52:00,
2013-05-21 16:57:00,63.5,44.5,29.71,WNW,292,12.7,12.8,50,0.00,CLR,FEW,0.00,WeatherDisplay:10.37,2013-05-21 23:57:00,
2013-05-21 17:02:00,63.1,44.2,29.71,West,270,6.9,6.9,50,0.00,CLR,FEW,0.00,WeatherDisplay:10.37,2013-05-22 00:02:00,
2013-05-21 17:07:00,63.0,44.0,29.71,West,270,13.8,13.8,50,0.00,CLR,FEW,0.00,WeatherDisplay:10.37,2013-05-22 00:07:00,
2013-05-21 17:12:00,62.6,43.7,29.71,SW,225,0.0,5.0,50,0.00,CLR,FEW,0.00,WeatherDisplay:10.37,2013-05-22 00:12:00,
2013-05-21 17:17:00,62.1,43.2,29.71,SSW,202,10.4,10.4,50,0.00,CLR,FEW,0.00,WeatherDisplay:10.37,2013-05-22 00:17:00,
2013-05-21 17:22:00,61.5,42.7,29.71,SSW,202,6.9,6.9,50,0.00,CLR,FEW,0.00,WeatherDisplay:10.37,2013-05-22 00:22:00,
2013-05-21 17:27:00,61.3,42.5,29.71,South,180,0.0,0.0,50,0.00,CLR,FEW,0.00,WeatherDisplay:10.37,2013-05-22 00:27:00,
2013-05-21 17:32:00,60.4,43.2,29.69,South,180,4.6,4.6,53,0.00,CLR,FEW,0.00,WeatherDisplay:10.37,2013-05-22 00:32:00,
2013-05-21 17:37:00,59.7,43.0,29.69,NE,45,3.5,3.5,54,0.00,CLR,FEW,0.00,WeatherDisplay:10.37,2013-05-22 00:37:00,
2013-05-21 17:42:00,58.8,43.1,29.69,NNE,22,6.9,6.9,56,0.00,CLR,FEW,0.00,WeatherDisplay:10.37,2013-05-22 00:42:00,
2013-05-21 17:47:00,58.1,42.9,29.69,ENE,68,6.9,6.9,57,0.00,CLR,FEW,0.00,WeatherDisplay:10.37,2013-05-22 00:47:00,
2013-05-21 17:52:00,57.7,43.9,29.71,NNE,22,0.0,0.0,60,0.00,CLR,FEW,0.02,WeatherDisplay:10.37,2013-05-22 00:52:00,
2013-05-21 17:57:00,57.4,43.6,29.71,ENE,68,0.0,0.0,60,0.02,RA,FEW,0.02,WeatherDisplay:10.37,2013-05-22 00:57:00,
2013-05-21 18:02:00,57.0,43.7,29.71,SW,225,9.2,9.2,61,0.02,RA,FEW,0.02,WeatherDisplay:10.37,2013-05-22 01:02:00,
2013-05-21 18:07:00,57.0,44.5,29.74,SSW,202,5.8,6.3,63,0.02,CLR,FEW,0.02,WeatherDisplay:10.37,2013-05-22 01:07:00,
2013-05-21 18:12:00,57.0,44.5,29.75,South,180,6.3,6.3,63,0.02,CLR,FEW,0.02,WeatherDisplay:10.37,2013-05-22 01:12:00,
2013-05-21 18:17:00,57.0,44.5,29.77,South,180,3.5,3.5,63,0.02,CLR,FEW,0.02,WeatherDisplay:10.37,2013-05-22 01:17:00,
2013-05-21 18:22:00,57.0,44.1,29.77,WSW,248,6.9,6.9,62,0.02,CLR,FEW,0.02,WeatherDisplay:10.37,2013-05-22 01:22:00,
2013-05-21 18:27:00,56.8,44.0,29.77,West,270,0.0,0.0,62,0.02,CLR,FEW,0.02,WeatherDisplay:10.37,2013-05-22 01:27:00,
2013-05-21 18:32:00,56.8,44.0,29.77,WNW,292,1.2,1.5,62,0.02,CLR,FEW,0.02,WeatherDisplay:10.37,2013-05-22 01:32:00,
2013-05-21 18:37:00,56.5,43.6,29.77,SW,225,2.3,2.3,62,0.02,CLR,FEW,0.02,WeatherDisplay:10.37,2013-05-22 01:37:00,
2013-05-21 18:42:00,56.3,43.4,29.76,WSW,248,5.8,5.8,62,0.02,CLR,FEW,0.02,WeatherDisplay:10.37,2013-05-22 01:42:00,
2013-05-21 18:47:00,56.1,43.3,29.77,West,270,0.0,0.0,62,0.02,CLR,FEW,0.02,WeatherDisplay:10.37,2013-05-22 01:47:00,
2013-05-21 18:52:00,55.9,43.1,29.77,West,270,0.0,0.0,62,0.02,CLR,FEW,0.02,WeatherDisplay:10.37,2013-05-22 01:52:00,
2013-05-21 18:57:00,55.9,43.5,29.77,WSW,248,0.0,0.0,63,0.02,CLR,FEW,0.02,WeatherDisplay:10.37,2013-05-22 01:57:00,
2013-05-21 19:02:00,55.8,43.3,29.76,NNE,22,0.0,0.0,63,0.00,CLR,FEW,0.02,WeatherDisplay:10.37,2013-05-22 02:02:00,
2013-05-21 19:07:00,55.4,43.0,29.76,NNE,22,0.0,0.0,63,0.00,CLR,FEW,0.02,WeatherDisplay:10.37,2013-05-22 02:07:00,
2013-05-21 19:12:00,55.4,43.4,29.76,NNE,22,0.0,0.0,64,0.00,CLR,FEW,0.02,WeatherDisplay:10.37,2013-05-22 02:12:00,
2013-05-21 19:17:00,55.0,43.5,29.77,NNE,22,0.0,0.0,65,0.02,RA,FEW,0.04,WeatherDisplay:10.37,2013-05-22 02:17:00,
2013-05-21 19:22:00,54.9,43.7,29.77,NW,315,3.5,3.5,66,0.02,RA,FEW,0.04,WeatherDisplay:10.37,2013-05-22 02:22:00,
2013-05-21 19:27:00,54.7,43.9,29.77,NW,315,0.0,0.0,67,0.02,CLR,FEW,0.04,WeatherDisplay:10.37,2013-05-22 02:27:00,
2013-05-21 19:32:00,54.7,44.3,29.76,NW,315,0.0,0.0,68,0.02,CLR,FEW,0.04,WeatherDisplay:10.37,2013-05-22 02:32:00,
2013-05-21 19:37:00,54.7,44.3,29.76,WSW,248,0.0,0.0,68,0.02,CLR,FEW,0.04,WeatherDisplay:10.37,2013-05-22 02:37:00,
2013-05-21 19:42:00,54.7,44.3,29.75,SW,225,2.3,2.3,68,0.02,CLR,FEW,0.04,WeatherDisplay:10.37,2013-05-22 02:42:00,
2013-05-21 19:47:00,54.3,44.4,29.76,SSW,202,0.0,0.0,69,0.02,CLR,FEW,0.04,WeatherDisplay:10.37,2013-05-22 02:47:00,
2013-05-21 19:52:00,54.3,44.4,29.76,SSW,202,0.0,0.0,69,0.02,CLR,FEW,0.04,WeatherDisplay:10.37,2013-05-22 02:52:00,
2013-05-21 19:57:00,54.3,44.4,29.76,SSW,202,0.0,0.0,69,0.02,CLR,FEW,0.04,WeatherDisplay:10.37,2013-05-22 02:57:00,
2013-05-21 20:02:00,54.1,44.2,29.75,SSW,202,0.0,0.0,69,0.02,CLR,FEW,0.04,WeatherDisplay:10.37,2013-05-22 03:02:00,
2013-05-21 20:07:00,54.1,44.2,29.75,SSW,202,0.0,0.0,69,0.02,CLR,FEW,0.04,WeatherDisplay:10.37,2013-05-22 03:07:00,
2013-05-21 20:12:00,54.1,44.2,29.75,SSW,202,0.0,0.0,69,0.02,CLR,FEW,0.04,WeatherDisplay:10.37,2013-05-22 03:12:00,
2013-05-21 20:17:00,54.1,44.6,29.75,SSW,202,0.0,0.0,70,0.02,CLR,FEW,0.04,WeatherDisplay:10.37,2013-05-22 03:17:00,
2013-05-21 20:22:00,53.8,44.6,29.75,SSW,202,0.0,0.0,71,0.02,CLR,FEW,0.04,WeatherDisplay:10.37,2013-05-22 03:22:00,
2013-05-21 20:27:00,53.8,44.6,29.75,SSW,202,0.0,0.0,71,0.00,CLR,FEW,0.04,WeatherDisplay:10.37,2013-05-22 03:27:00,
2013-05-21 20:32:00,53.8,44.6,29.76,SSW,202,0.0,0.0,71,0.00,CLR,FEW,0.04,WeatherDisplay:10.37,2013-05-22 03:32:00,
2013-05-21 20:37:00,53.4,44.2,29.76,SSW,202,0.0,0.0,71,0.00,CLR,FEW,0.04,WeatherDisplay:10.37,2013-05-22 03:37:00,
2013-05-21 20:42:00,53.4,44.2,29.75,SSW,202,0.0,0.0,71,0.00,CLR,FEW,0.04,WeatherDisplay:10.37,2013-05-22 03:42:00,
2013-05-21 20:47:00,53.4,44.6,29.76,SSW,202,0.0,0.0,72,0.00,CLR,FEW,0.04,WeatherDisplay:10.37,2013-05-22 03:47:00,
2013-05-21 20:52:00,53.2,44.1,29.76,SSW,202,0.0,0.0,71,0.00,CLR,FEW,0.04,WeatherDisplay:10.37,2013-05-22 03:52:00,
2013-05-21 20:57:00,53.2,44.1,29.76,SSW,202,0.0,0.0,71,0.00,CLR,FEW,0.04,WeatherDisplay:10.37,2013-05-22 03:57:00,
2013-05-21 21:01:00,53.1,44.3,29.76,SSW,202,0.0,0.0,72,0.00,CLR,FEW,0.04,WeatherDisplay:10.37,2013-05-22 04:01:00,
2013-05-21 21:03:00,53.1,44.3,29.76,SSW,202,0.0,0.0,72,0.00,CLR,FEW,0.04,WeatherDisplay:10.37,2013-05-22 04:03:00,
2013-05-21 21:04:00,52.9,44.1,29.76,SSW,202,0.0,0.0,72,0.00,CLR,FEW,0.04,WeatherDisplay:10.37,2013-05-22 04:04:00,
2013-05-21 21:05:00,52.9,44.1,29.76,SSW,202,0.0,0.0,72,0.00,CLR,FEW,0.04,WeatherDisplay:10.37,2013-05-22 04:05:00,
2013-05-21 21:07:00,52.9,44.5,29.76,SSW,202,0.0,0.0,73,0.00,CLR,FEW,0.04,WeatherDisplay:10.37,2013-05-22 04:07:00,
2013-05-21 21:12:00,52.9,44.5,29.76,SSW,202,0.0,0.0,73,0.00,CLR,FEW,0.04,WeatherDisplay:10.37,2013-05-22 04:12:00,
2013-05-21 21:17:00,52.9,44.5,29.76,SSW,202,0.0,0.0,73,0.00,CLR,FEW,0.04,WeatherDisplay:10.37,2013-05-22 04:17:00,
2013-05-21 21:22:00,52.9,44.5,29.76,SSW,202,0.0,0.0,73,0.00,CLR,FEW,0.04,WeatherDisplay:10.37,2013-05-22 04:22:00,
2013-05-21 21:27:00,52.9,44.5,29.76,SSW,202,0.0,0.0,73,0.00,CLR,FEW,0.04,WeatherDisplay:10.37,2013-05-22 04:27:00,
2013-05-21 21:32:00,52.9,44.8,29.75,SSW,202,0.0,0.0,74,0.00,CLR,FEW,0.04,WeatherDisplay:10.37,2013-05-22 04:32:00,
2013-05-21 21:37:00,52.7,44.6,29.76,SSW,202,0.0,0.0,74,0.00,CLR,FEW,0.04,WeatherDisplay:10.37,2013-05-22 04:37:00,
2013-05-21 21:42:00,52.7,44.6,29.76,SSW,202,0.0,0.0,74,0.00,CLR,FEW,0.04,WeatherDisplay:10.37,2013-05-22 04:42:00,
2013-05-21 21:47:00,52.7,44.6,29.77,SSW,202,0.0,0.0,74,0.00,CLR,FEW,0.04,WeatherDisplay:10.37,2013-05-22 04:47:00,
2013-05-21 21:52:00,52.5,44.5,29.76,SSW,202,0.0,0.0,74,0.00,CLR,FEW,0.04,WeatherDisplay:10.37,2013-05-22 04:52:00,
2013-05-21 21:57:00,52.5,44.5,29.75,SSW,202,0.0,0.0,74,0.00,CLR,FEW,0.04,WeatherDisplay:10.37,2013-05-22 04:57:00,
2013-05-21 22:02:00,52.5,44.8,29.75,SSW,202,0.0,0.0,75,0.02,RA,FEW,0.06,WeatherDisplay:10.37,2013-05-22 05:02:00,
2013-05-21 22:07:00,52.3,44.6,29.75,SSW,202,0.0,0.0,75,0.04,RA,FEW,0.08,WeatherDisplay:10.37,2013-05-22 05:07:00,
2013-05-21 22:12:00,52.3,44.6,29.76,SSW,202,0.0,0.0,75,0.04,RA,FEW,0.08,WeatherDisplay:10.37,2013-05-22 05:12:00,
2013-05-21 22:17:00,52.3,44.6,29.75,SSW,202,0.0,0.0,75,0.04,RA,FEW,0.08,WeatherDisplay:10.37,2013-05-22 05:17:00,
2013-05-21 22:22:00,52.2,44.5,29.75,SSW,202,0.0,0.0,75,0.04,CLR,FEW,0.08,WeatherDisplay:10.37,2013-05-22 05:22:00,
2013-05-21 22:27:00,52.2,44.8,29.76,SSW,202,0.0,0.0,76,0.06,RA,FEW,0.10,WeatherDisplay:10.37,2013-05-22 05:27:00,
2013-05-21 22:32:00,52.0,44.6,29.76,SSW,202,0.0,0.0,76,0.06,RA,FEW,0.10,WeatherDisplay:10.37,2013-05-22 05:32:00,
2013-05-21 22:37:00,52.0,45.0,29.76,SSW,202,0.0,0.0,77,0.06,CLR,FEW,0.10,WeatherDisplay:10.37,2013-05-22 05:37:00,
2013-05-21 22:42:00,52.0,45.0,29.75,SSW,202,0.0,0.0,77,0.06,CLR,FEW,0.10,WeatherDisplay:10.37,2013-05-22 05:42:00,
2013-05-21 22:47:00,52.0,45.0,29.76,SSW,202,0.0,0.0,77,0.06,CLR,FEW,0.10,WeatherDisplay:10.37,2013-05-22 05:47:00,
2013-05-21 22:52:00,51.8,44.8,29.75,SSW,202,0.0,0.0,77,0.06,CLR,FEW,0.10,WeatherDisplay:10.37,2013-05-22 05:52:00,
2013-05-21 22:57:00,51.6,44.6,29.76,SSW,202,0.0,0.0,77,0.06,CLR,FEW,0.10,WeatherDisplay:10.37,2013-05-22 05:57:00,
2013-05-21 23:02:00,51.6,44.6,29.75,SSW,202,0.0,0.0,77,0.06,CLR,FEW,0.10,WeatherDisplay:10.37,2013-05-22 06:02:00,
2013-05-21 23:07:00,51.4,44.5,29.74,SSW,202,0.0,0.0,77,0.04,CLR,FEW,0.10,WeatherDisplay:10.37,2013-05-22 06:07:00,
2013-05-21 23:12:00,51.4,44.5,29.74,SSW,202,0.0,0.0,77,0.04,CLR,FEW,0.10,WeatherDisplay:10.37,2013-05-22 06:12:00,
2013-05-21 23:17:00,51.4,44.8,29.74,SSW,202,0.0,0.0,78,0.02,CLR,FEW,0.10,WeatherDisplay:10.37,2013-05-22 06:17:00,
2013-05-21 23:22:00,51.3,44.6,29.74,SSW,202,0.0,0.0,78,0.02,CLR,FEW,0.10,WeatherDisplay:10.37,2013-05-22 06:22:00,
2013-05-21 23:27:00,51.4,44.8,29.74,SSW,202,0.0,0.0,78,0.02,CLR,FEW,0.10,WeatherDisplay:10.37,2013-05-22 06:27:00,
2013-05-21 23:32:00,51.3,44.6,29.74,SSW,202,0.0,0.0,78,0.00,CLR,FEW,0.10,WeatherDisplay:10.37,2013-05-22 06:32:00,
2013-05-21 23:37:00,51.1,44.5,29.75,SSW,202,0.0,0.0,78,0.00,CLR,FEW,0.10,WeatherDisplay:10.37,2013-05-22 06:37:00,
2013-05-21 23:42:00,51.1,44.8,29.75,SSW,202,0.0,0.0,79,0.00,CLR,FEW,0.10,WeatherDisplay:10.37,2013-05-22 06:42:00,
2013-05-21 23:47:00,51.1,44.8,29.74,SW,225,2.3,2.3,79,0.00,CLR,FEW,0.10,WeatherDisplay:10.37,2013-05-22 06:47:00,
2013-05-21 23:52:00,51.1,44.8,29.75,SSW,202,3.5,3.5,79,0.00,CLR,FEW,0.10,WeatherDisplay:10.37,2013-05-22 06:52:00,
2013-05-21 23:57:00,51.1,44.8,29.74,SSW,202,0.0,0.0,79,0.00,CLR,FEW,0.10,WeatherDisplay:10.37,2013-05-22 06:57:00,